Miscellaneous Local Product
Issued by NWS Hastings, NE

Home | Current Version | Previous Version | Graphics & Text | Print | Product List | Glossary Off
Versions: 1 2 3 4 5 6 7 8 9 10 11 12 13 14 15 16 17 18 19 20 21 22 23 24 25 26 27 28 29 30 31 32 33 34 35 36 37 38 39 40 41 42 43 44 45 46 47 48 49 50

297
AXUS43 KGID 300702
MISGRI

GID CWA HOURLY WEATHER ROUNDUP
NATIONAL WEATHER SERVICE HASTINGS NE
200 AM CDT SUN APR 30 2017

NOTE: "FAIR" INDICATES FEW OR NO CLOUDS BELOW 12,000 FEET WITH NO
SIGNIFICANT WEATHER AND/OR OBSTRUCTIONS TO VISIBILITY.

...SOUTH CENTRAL NEBRASKA...

CITY           SKY/WX    TMP DP  RH WIND       PRES   REMARKS
GRAND ISLAND   LGT RAIN  37  36  96 NE17G26   29.95F WCI  27
HASTINGS       LGT SNOW  36  34  92 N23       29.92F FOG     WCI  24
KEARNEY        CLOUDY    36  30  80 N22G29    29.93F WCI  24
ORD            CLOUDY    39  31  72 NE16G26   29.98  WCI  30
YORK           MIX PCPN  37  37 100 N23G30    29.92F WCI  26
AURORA         LGT RAIN  37  36  94 N24G31    29.92F WCI  26
LEXINGTON      CLOUDY    39  31  72 N22G33    29.96F WCI  28
HOLDREGE       LGT SNOW  34  32  93 N23G29    29.90F WCI  22
HEBRON         LGT RAIN  38  38  97 N20       29.86F WCI  28

...NEBRASKA PANHANDLE...

CITY           SKY/WX    TMP DP  RH WIND       PRES   REMARKS
CHADRON        CLEAR     31  25  78 SW3       30.15F
ALLIANCE       CLEAR     30  25  81 N9        30.10F WCI  22
SCOTTSBLUFF    CLEAR     36  25  64 N14       30.13F WCI  27
SIDNEY         CLOUDY    33  25  72 N13       30.06F WCI  24

...WESTERN AND NORTH CENTRAL NEBRASKA...

CITY           SKY/WX    TMP DP  RH WIND       PRES   REMARKS
VALENTINE      MOCLDY    43  22  43 N8        30.10F
AINSWORTH      CLOUDY    42  27  56 NE9       30.07F
ONEILL         CLOUDY    44  24  46 N10       30.05F
BROKEN BOW     CLOUDY    41  28  60 NE22G29   29.97
IMPERIAL       CLOUDY    39  24  55 N18G28    29.98  WCI  30
NORTH PLATTE   CLOUDY    42  24  49 N17G24    30.00F
MCCOOK         LGT SNOW  34  33  96 N23G30    29.92F FOG     WCI  22

...EASTERN NEBRASKA...

CITY           SKY/WX    TMP DP  RH WIND       PRES   REMARKS
NORFOLK        CLOUDY    42  32  67 NE18G31   29.99F
SO SIOUX CITY  LGT RAIN  44  35  70 NE23      30.03F
TEKAMAH        LGT RAIN  40  37  89 N18       29.97F FOG     WCI  31
COLUMBUS       CLOUDY    39  34  81 N18G28    29.95F WCI  30
ALBION         RAIN      41  33  74 N17G24    29.98F
OMAHA EPPLEY   LGT RAIN  40  36  86 N17       29.94F FOG     WCI  31
OFFUTT AFB     LGT RAIN  40  38  92 N13G18    29.89F WCI  32
MILLARD        DRIZZLE   42  39  92 N9G16     29.93F
LINCOLN        RAIN      40  38  93 NE22      29.90F FOG     WCI  30
NEBRASKA CITY  DRIZZLE   39  39 100 NE20G30   29.85F WCI  30
BEATRICE       LGT RAIN  40  39  97 NE20G25   29.83F WCI  30
FALLS CITY     LGT RAIN  41  39  93 NE17G25   29.81F FOG

...NORTHERN KANSAS...

CITY           SKY/WX    TMP DP  RH WIND       PRES   REMARKS
GOODLAND       FLURRIES  32  31  96 N30G39    29.88F WCI  18
HILL CITY      MIX PCPN  35  34  96 N26G36    29.85  FOG     WCI  22
NORTON         LGT RAIN  36  30  80 N24G31    29.86F WCI  24
PHILLIPSBURG   LGT RAIN  36  36 100 N23G29    29.86F WCI  24
HAYS           MIX PCPN  36  34  92 N28G36    29.78F FOG     WCI  23
RUSSELL        LGT SNOW  38  37  97 N29G36    29.75F FOG     WCI  26
CONCORDIA      LGT RAIN  39  38  96 N18G31    29.81F FOG     WCI  30
SALINA         LGT RAIN  42  39  89 N23G31    29.74F FOG
TOPEKA         LGT RAIN  43  43 100 N20G26    29.71R FOG



USA.gov is the U.S. government's official web portal to all federal, state and local government web resources and services.